• In Portugal
  • List of Countries
  • For 7 days
  • Water Temperature
  • Satellite Maps
  • Weather Map
  • Weather Widgets
  • user-avatar
    Login

    Hourly Weather Marianka

    Today, 22 June, Friday

    Time Temperature Precipitation Wind Pressure Humidity
    00:00 +12°C° 0 mm 5 mps 733 mmHg 94%
    01:00 +10°C° 0 mm 5 mps 734 mmHg 94%
    02:00 +9°C° 0 mm 3 mps 734 mmHg 95%
    03:00 +8°C° 0 mm 4 mps 734 mmHg 94%
    04:00 +8°C° 0 mm 4 mps 735 mmHg 94%
    05:00 +7°C° 0 mm 5 mps 735 mmHg 93%
    06:00 +8°C° 0 mm 5 mps 735 mmHg 88%
    07:00 +9°C° 0 mm 6 mps 736 mmHg 83%
    08:00 +12°C° 0 mm 5 mps 736 mmHg 77%
    09:00 +13°C° 0 mm 6 mps 736 mmHg 72%
    10:00 +14°C° 0 mm 6 mps 736 mmHg 66%
    11:00 +14°C° 0 mm 7 mps 737 mmHg 60%
    12:00 +15°C° 0.1 mm 7 mps 737 mmHg 58%
    13:00 +15°C° 0.1 mm 7 mps 737 mmHg 57%
    14:00 +16°C° 0.1 mm 7 mps 737 mmHg 55%
    15:00 +16°C° 0.1 mm 6 mps 738 mmHg 57%
    16:00 +15°C° 0.1 mm 6 mps 738 mmHg 59%
    17:00 +15°C° 0.1 mm 6 mps 738 mmHg 60%
    18:00 +14°C° 0 mm 5 mps 738 mmHg 66%
    19:00 +13°C° 0 mm 3 mps 738 mmHg 72%
    20:00 +13°C° 0 mm 2 mps 738 mmHg 78%
    21:00 +12°C° 0 mm 2 mps 738 mmHg 81%
    22:00 +10°C° 0 mm 2 mps 738 mmHg 85%
    23:00 +9°C° 0 mm 2 mps 739 mmHg 88%

    Tomorrow, 23 June, Saturday

    Time Temperature Precipitation Wind Pressure Humidity
    00:00 +9°C° 0 mm 2 mps 739 mmHg 89%
    01:00 +8°C° 0 mm 2 mps 738 mmHg 89%
    02:00 +8°C° 0 mm 2 mps 738 mmHg 90%
    03:00 +8°C° 0 mm 2 mps 738 mmHg 90%
    04:00 +8°C° 0 mm 2 mps 738 mmHg 90%
    05:00 +8°C° 0 mm 2 mps 738 mmHg 90%
    06:00 +10°C° 0 mm 2 mps 738 mmHg 84%
    07:00 +12°C° 0 mm 2 mps 738 mmHg 77%
    08:00 +13°C° 0 mm 3 mps 738 mmHg 71%
    09:00 +14°C° 0.1 mm 3 mps 738 mmHg 67%
    10:00 +16°C° 0.1 mm 3 mps 738 mmHg 63%
    11:00 +17°C° 0.1 mm 3 mps 738 mmHg 59%
    12:00 +17°C° 0.4 mm 3 mps 738 mmHg 61%
    13:00 +17°C° 0.4 mm 3 mps 737 mmHg 63%
    14:00 +17°C° 0.4 mm 3 mps 737 mmHg 65%
    15:00 +17°C° 0.6 mm 3 mps 737 mmHg 69%
    16:00 +16°C° 0.6 mm 3 mps 737 mmHg 72%
    17:00 +16°C° 0.6 mm 3 mps 737 mmHg 76%
    18:00 +14°C° 0.4 mm 3 mps 737 mmHg 81%
    19:00 +13°C° 0.4 mm 3 mps 737 mmHg 85%
    20:00 +13°C° 0.4 mm 2 mps 737 mmHg 89%
    21:00 +11°C° 0 mm 3 mps 737 mmHg 91%
    22:00 +10°C° 0 mm 3 mps 737 mmHg 93%
    23:00 +8°C° 0 mm 3 mps 737 mmHg 94%

    Day after tomorrow, 24 June, Sunday

    Time Temperature Precipitation Wind Pressure Humidity
    00:00 +8°C° 0 mm 3 mps 737 mmHg 94%
    01:00 +7°C° 0 mm 3 mps 737 mmHg 95%
    02:00 +7°C° 0 mm 3 mps 737 mmHg 95%
    03:00 +7°C° 0 mm 3 mps 737 mmHg 95%
    04:00 +5°C° 0 mm 3 mps 737 mmHg 95%
    05:00 +5°C° 0 mm 3 mps 737 mmHg 95%
    06:00 +8°C° 0 mm 3 mps 737 mmHg 90%
    07:00 +10°C° 0 mm 3 mps 738 mmHg 86%
    08:00 +11°C° 0 mm 3 mps 738 mmHg 81%
    09:00 +12°C° 0.2 mm 3 mps 738 mmHg 75%
    10:00 +14°C° 0.2 mm 3 mps 738 mmHg 70%
    11:00 +16°C° 0.2 mm 3 mps 738 mmHg 64%
    12:00 +15°C° 0.3 mm 4 mps 738 mmHg 65%
    13:00 +15°C° 0.3 mm 4 mps 738 mmHg 67%
    14:00 +15°C° 0.3 mm 4 mps 738 mmHg 68%
    15:00 +15°C° 0.4 mm 4 mps 738 mmHg 71%
    16:00 +15°C° 0.4 mm 4 mps 738 mmHg 73%
    17:00 +14°C° 0.4 mm 4 mps 738 mmHg 76%
    18:00 +14°C° 0.1 mm 4 mps 738 mmHg 80%
    19:00 +13°C° 0.1 mm 3 mps 739 mmHg 84%
    20:00 +13°C° 0.1 mm 2 mps 739 mmHg 88%
    21:00 +12°C° 0 mm 2 mps 739 mmHg 90%
    22:00 +10°C° 0 mm 2 mps 739 mmHg 93%
    23:00 +9°C° 0 mm 2 mps 740 mmHg 95%

    25 June, Monday

    Time Temperature Precipitation Wind Pressure Humidity
    00:00 +8°C° 0 mm 2 mps 740 mmHg 96%
    01:00 +8°C° 0 mm 2 mps 740 mmHg 96%
    02:00 +8°C° 0 mm 2 mps 740 mmHg 96%
    03:00 +8°C° 0 mm 2 mps 740 mmHg 96%
    04:00 +8°C° 0 mm 2 mps 740 mmHg 96%
    05:00 +8°C° 0 mm 2 mps 741 mmHg 95%
    06:00 +9°C° 0 mm 2 mps 741 mmHg 90%
    07:00 +12°C° 0 mm 2 mps 741 mmHg 84%
    08:00 +13°C° 0 mm 2 mps 742 mmHg 78%
    09:00 +15°C° 0 mm 2 mps 742 mmHg 71%
    10:00 +16°C° 0 mm 2 mps 742 mmHg 64%
    11:00 +17°C° 0 mm 2 mps 742 mmHg 56%
    12:00 +18°C° 0.1 mm 2 mps 742 mmHg 56%
    13:00 +19°C° 0.1 mm 3 mps 742 mmHg 55%
    14:00 +19°C° 0.1 mm 3 mps 742 mmHg 55%
    15:00 +19°C° 0.1 mm 3 mps 742 mmHg 57%
    16:00 +19°C° 0.1 mm 3 mps 742 mmHg 59%
    17:00 +19°C° 0.1 mm 3 mps 742 mmHg 61%
    18:00 +18°C° 0.1 mm 3 mps 742 mmHg 68%
    19:00 +17°C° 0.1 mm 2 mps 743 mmHg 74%
    20:00 +16°C° 0.1 mm 1 mps 743 mmHg 81%
    21:00 +15°C° 0 mm 1 mps 743 mmHg 83%
    22:00 +14°C° 0 mm 2 mps 743 mmHg 86%
    23:00 +13°C° 0 mm 2 mps 743 mmHg 89%

    26 June, Tuesday

    Time Temperature Precipitation Wind Pressure Humidity
    00:00 +12°C° 0 mm 2 mps 743 mmHg 89%
    01:00 +12°C° 0 mm 2 mps 743 mmHg 90%
    02:00 +12°C° 0 mm 2 mps 744 mmHg 90%
    03:00 +12°C° 0.3 mm 2 mps 744 mmHg 91%
    04:00 +12°C° 0.3 mm 2 mps 744 mmHg 92%
    05:00 +12°C° 0.3 mm 2 mps 744 mmHg 93%
    06:00 +13°C° 0.1 mm 2 mps 744 mmHg 89%
    07:00 +14°C° 0.1 mm 2 mps 744 mmHg 85%
    08:00 +14°C° 0.1 mm 3 mps 744 mmHg 81%
    09:00 +17°C° 0.1 mm 3 mps 744 mmHg 77%
    10:00 +18°C° 0.1 mm 3 mps 744 mmHg 74%
    11:00 +19°C° 0.1 mm 3 mps 744 mmHg 71%
    12:00 +19°C° 0.4 mm 3 mps 744 mmHg 71%
    13:00 +20°C° 0.4 mm 3 mps 744 mmHg 71%
    14:00 +20°C° 0.4 mm 4 mps 744 mmHg 71%
    15:00 +20°C° 0.5 mm 4 mps 744 mmHg 73%
    16:00 +19°C° 0.5 mm 4 mps 743 mmHg 75%
    17:00 +19°C° 0.5 mm 4 mps 743 mmHg 77%
    18:00 +18°C° 0.4 mm 4 mps 743 mmHg 80%
    19:00 +17°C° 0.4 mm 4 mps 743 mmHg 83%
    20:00 +17°C° 0.4 mm 4 mps 743 mmHg 86%
    21:00 +14°C° 0 mm 3 mps 743 mmHg 88%
    22:00 +13°C° 0 mm 3 mps 743 mmHg 91%
    23:00 +12°C° 0 mm 3 mps 743 mmHg 93%

    27 June, Wednesday

    Time Temperature Precipitation Wind Pressure Humidity
    00:00 +11°C° 0 mm 3 mps 743 mmHg 94%
    01:00 +11°C° 0 mm 3 mps 743 mmHg 94%
    02:00 +10°C° 0 mm 2 mps 743 mmHg 95%
    03:00 +10°C° 0 mm 2 mps 743 mmHg 95%
    04:00 +10°C° 0 mm 2 mps 744 mmHg 95%
    05:00 +10°C° 0 mm 2 mps 744 mmHg 95%
    06:00 +11°C° 0 mm 3 mps 744 mmHg 90%
    07:00 +13°C° 0 mm 3 mps 744 mmHg 85%
    08:00 +16°C° 0 mm 3 mps 744 mmHg 81%
    09:00 +17°C° 0 mm 4 mps 744 mmHg 75%
    10:00 +19°C° 0 mm 4 mps 744 mmHg 69%
    11:00 +20°C° 0 mm 4 mps 744 mmHg 63%
    12:00 +21°C° 0.1 mm 4 mps 744 mmHg 61%
    13:00 +21°C° 0.1 mm 5 mps 744 mmHg 60%
    14:00 +22°C° 0.1 mm 5 mps 743 mmHg 59%
    15:00 +22°C° 0.1 mm 5 mps 743 mmHg 60%
    16:00 +22°C° 0.1 mm 5 mps 743 mmHg 61%
    17:00 +22°C° 0.1 mm 5 mps 743 mmHg 62%
    18:00 +20°C° 0 mm 4 mps 743 mmHg 67%
    19:00 +19°C° 0 mm 4 mps 744 mmHg 73%
    20:00 +18°C° 0 mm 3 mps 744 mmHg 78%
    21:00 +17°C° 0 mm 3 mps 744 mmHg 82%
    22:00 +14°C° 0 mm 3 mps 744 mmHg 85%
    23:00 +13°C° 0 mm 3 mps 744 mmHg 89%
    Show more